Regional Weather Roundup
Issued by NWS

Home | Current Version | Previous Version | Graphics & Text | Print | Product List | Glossary On
Versions: 1 2 3 4 5 6 7 8 9 10 11 12 13 14 15 16 17 18 19 20 21 22 23 24 25 26 27 28 29 30 31 32 33 34 35 36 37 38 39 40 41 42 43 44 45 46 47 48 49 50
000
ASUS45 KTFX 270119
RWRMT
MONTANA HOURLY WEATHER ROUNDUP
NATIONAL WEATHER SERVICE GREAT FALLS MT
619 PM MST FRI DEC 26 2014

NOTE: "FAIR" INDICATES FEW OR NO CLOUDS BELOW 12000 FEET WITH NO
SIGNIFICANT WEATHER AND/OR OBSTRUCTIONS TO VISIBILITY.

* THESE STATIONS ARE NOT UNDER NWS QUALITY CONTROL. THEY DO NOT
   REPORT WEATHER SUCH AS PRECIPITATION OR FOG.

MTZ001>007-043-270200-
WEST OF THE DIVIDE
CITY           SKY/WX    TMP DP  RH WIND       PRES   REMARKS
KALISPELL      CLOUDY    23  19  85 CALM      30.19R
MISSOULA       CLOUDY    27  19  72 W5        30.19R WCI  21
BUTTE          MOCLDY     9   7  91 S5        30.08R
MULLAN PASS    HAZE      18  12  77 NW5       30.07R WCI  11
* ESSEX        N/A       23  21  92 N2         N/A
* HAMILTON APT MOCLDY    27  21  78 SE2       30.17S
* LIBBY APT    PTCLDY    21  19  92 CALM      30.23S
* LINCOLN      N/A       23  17  78 S5G10      N/A   WCI  16
* LOOKOUT PASS N/A       20  16  84 NE4        N/A
* POLSON       N/A       26  25  96 N/A        N/A
* RONAN APT    PTCLDY    25  23  92 N/A        N/A
* SEELEY LAKE  N/A       22  16  78 SW2        N/A
* THOMP F APT  PTCLDY    16   5  62 N4         N/A
$$

MTZ008-052>055-270200-
SOUTHWEST MONTANA
CITY           SKY/WX    TMP DP  RH WIND       PRES   REMARKS
BOZEMAN        FOG        9   5  84 S7        30.13R WCI  -2
DILLON         CLOUDY    18  10  71 SE6       30.08R WCI  10
* W YELLOWSTON MOCLDY     1  -4  79 N/A        N/A
* THREE FORKS  PTCLDY    12  12 100 N/A        N/A
* TWIN BRIDGES MOCLDY    10   1  67 NE6        N/A
* BOULDER HILL N/A       13   6  73 SW3        N/A
* MONIDA PASS  N/A       12   7  80 NW6        N/A   WCI   2
* RAYNOLDS PAS N/A       14 -31  11 N7G12      N/A   WCI   4
* WHITEHALL    N/A       20  12  71 SE3        N/A
* WISE RIVER   N/A       18  11  74 W5G12      N/A   WCI  11
$$

MTZ009>010-012-014-046-048-049-054-270200-
EAST SLOPES AND CENTRAL MONTANA
CITY           SKY/WX    TMP DP  RH WIND       PRES   REMARKS
CUT BANK       CLEAR     12   9  88 S3        30.04S
GREAT FALLS    CLEAR     10   7  88 S10       30.07F WCI  -4
HELENA         PTCLDY    18  12  77 CALM      30.12R
MALMSTROM AFB  CLEAR      9   7  91 S5        30.11F
* CONRAD       CLEAR     12   9  88 W7         N/A   WCI   1
* DEARBORN     N/A       17  14  88 SW2        N/A
* EAST GLACIER N/A       20  10  65 W14G22     N/A   WCI   7
* MONARCH      N/A       11   6  80 S8         N/A   WCI  -1
* PENDROY      N/A       11   9  92 SW4        N/A
* ROGERS PASS  N/A       19  15  84 SE6G15     N/A   WCI  11
* SWEET GRASS  N/A       16  13  88 S12        N/A   WCI   3
* WHITE SULPH  N/A        9   6  87 NE3        N/A
$$

MTZ011-013-016-021-035-040-045-047-050-051-270200-
NORTH CENTRAL MONTANA
CITY           SKY/WX    TMP DP  RH WIND       PRES   REMARKS
HAVRE          CLEAR     18  14  84 SW10      30.13S WCI   6
LEWISTOWN      CLEAR      7   3  83 SW10      30.08S WCI  -7
* N BAR RANCH  CLEAR     16   9  74 W6        30.06S WCI   7
* CHINOOK      CLEAR     18  12  77 CALM      30.14S
* CHESTER      N/A       15  11  84 SW2        N/A
* DENTON       N/A       10   7  88 S9         N/A   WCI  -3
* GEYSER       N/A       10   7  88 SW6        N/A
* JUDITH GAP   N/A       12  10  92 NW9        N/A
* LOMA         N/A       19  15  84 SW4        N/A
$$

MTZ017>020-022>027-061-062-270200-
NORTHEAST MONTANA
CITY           SKY/WX    TMP DP  RH WIND       PRES   REMARKS
GLASGOW        CLOUDY    25  19  78 W5        30.11R WCI  19
GLENDIVE       CLOUDY    23  18  81 S8        30.12S WCI  14
JORDAN         PTCLDY    27  19  72 NW14      30.11R WCI  16
SIDNEY         CLOUDY    21  18  88 CALM      30.14F
WOLF POINT     CLOUDY    19  16  88 CALM      30.14R
* BEAVER HILL  N/A       19  13  77 S8         N/A   WCI   9
* CIRCLE       N/A       26  23  88 W1         N/A
* LINDSAY DVD  N/A       21  18  88 SW7        N/A   WCI  12
* NAVAJO       N/A       16  14  92 SW4        N/A
* PLENTYWOOD A CLEAR     16  12  84 SE5       30.11S WCI   8
* POPLAR APT   CLEAR     19  16  88 N6        30.12S WCI  11
* SACO         N/A       23  16  74 W9G15      N/A   WCI  13
* SCOBEY APT   CLEAR     16   9  74 N/A        N/A
$$

MTZ028>042-056>058-270200-
SOUTHCENTRAL AND SOUTHEAST MONTANA
CITY           SKY/WX    TMP DP  RH WIND       PRES   REMARKS
BAKER          MOCLDY    14  10  84 SW7       30.10S WCI   4
BILLINGS       PTCLDY    19  12  74 CALM      30.11R
LIVINGSTON     CLOUDY    19  12  74 W12       30.09R WCI   6
MILES CITY     CLOUDY    25  19  78 W8        30.11R WCI  16
* BIG TIMBER A PTCLDY    18  12  77 S3        30.10R
* FORSYTH APT  CLOUDY    23  19  85 W6        30.13S WCI  16
* LAUREL APT   MOCLDY    21  10  62 W5         N/A   WCI  14
* ROUNDUP APT  CLEAR     21  12  68 N/A        N/A
* ALZADA       N/A       19  13  77 W2         N/A
* REED POINT   N/A       17  13  84 N/A        N/A
* ROSCOE HILL  N/A       18   7  62 E4         N/A
$$

REGIONAL REPORTS...DAKOTAS
CITY           SKY/WX    TMP DP  RH WIND       PRES   REMARKS
WILLISTON      CLOUDY    19  14  81 S5        30.13F WCI  12
DICKINSON      PTCLDY    12   9  88 E7        30.11R WCI   1
BEACH          CLOUDY    16  14  92 SW5       30.12R WCI   8
CROSBY         CLOUDY    16  16 100 SW3       30.13F
TIOGA          CLOUDY    16  16 100 SW6       30.14F WCI   7
WATFORD CITY   CLOUDY    18  14  84 SE8       30.11F WCI   8
BISMARCK       PTCLDY     5   1  83 SE3       30.20S
GRAND FORKS    CLEAR      5   0  80 NW9       30.25S WCI  -9
FARGO          MOCLDY    16  10  77 N16       30.22R WCI   1
BUFFALO SD     CLEAR     18  10  71 W5        30.03F WCI  11
RAPID CITY     CLOUDY    18  12  77 CALM      30.11R
$$

REGIONAL REPORTS...WYOMING/IDAHO/WASHINGTON
CITY           SKY/WX    TMP DP  RH WIND       PRES   REMARKS
GILLETTE       PTCLDY    -4  -6  91 SW3       30.05R
SHERIDAN       CLOUDY    12   7  80 CALM      30.08R
CODY           CLOUDY    18  12  77 NE6       30.04R WCI  10
YELLOWSTONE LA MOCLDY    10   3  73 NW6       29.97R
SALMON         CLOUDY    21  18  88 SE3       30.17R
MULLAN PASS    HAZE      18  12  77 NW5       30.07S WCI  11
SAND POINT     PTCLDY    28  28 100 S6        30.25S WCI  21
SPOKANE        PTCLDY    28  27  96 SE5       30.25R WCI  22
$$

REGIONAL REPORTS...ALBERTA
CITY           SKY/WX    TMP DP  RH WIND       PRES   REMARKS
CALGARY        PTCLDY    23  10  57 W3        29.99S
LETHBRIDGE     PTCLDY    18  12  77 SW12G17   30.04S WCI   5
MEDICINE HAT   N/A       16  14  92 S6        30.08S WCI   7
EDMONTON       CLOUDY    16  10  77 SW5       30.00S WCI   8
WATERTON GATE  N/A       23  12  63 SW21G28    N/A   WCI   8
CARDSTON       N/A       18  10  71 SW9        N/A   WCI   7
MILK RIVER     N/A       14  10  84 SW7        N/A   WCI   4
$$

REGIONAL REPORTS...SASKATCHEWAN
CITY           SKY/WX    TMP DP  RH WIND       PRES   REMARKS
SWIFT CURRENT  CLOUDY    14  12  92 SW10      30.04F WCI   1
REGINA         LGT SNOW   7   5  91 SE7       30.10F WCI  -5
VAL MARIE      N/A        7   3  83 NW6        N/A   WCI  -4
ASSINIBOIA     N/A       16  12  84 W6         N/A   WCI   7

$$




USA.gov is the U.S. government's official web portal to all federal, state and local government web resources and services.